Вернуться в каталог

FENGYUN 1C DEB

АктивенSSO
NORAD 36226·DEBRIS·🇨🇳 China

Запущен May 10, 1999 с Taiyuan Satellite Launch Center

Loading…

Ближайшие Пролёты (ближайшие 24 часа)

TLE

УстаревающийSource: Space-Track

Эпоха: Sep 11, 2026, 07:41 UTC

1 36226U 99025DVB 26254.32037620  .00001303  00000-0  71258-3 0  9999
2 36226  98.5915 290.2590 0093354 324.4310  35.0662 14.11451785676060

Отслеживайте FENGYUN 1C DEB в реальном времени с AllMySat

Download on the App Store